Epoch 2012 Aug. 21.0 TT = JDT 2456160.5
T 2012 Aug. 22.78957 TT MPC
q 1.3361506 (2000.0) P Q
n 0.16540605 Peri. 97.19233 +0.94821371 +0.30608091
a 3.2867635 Node 245.01447 -0.31563432 +0.87804556
e 0.5934753 Incl. 5.37349 -0.03557704 +0.36790008
P 5.96
From 183 observations 2006 Aug. 29-2012 Nov. 12, mean residual 0".5.